Location: Poughquag
(41.6090°N, 73.6820°W)
Time: 14:52:24
(UTC-04:00)

Altair - Pass Details

Date: 01 June 2020
Orbit: 1501 x 1683 km, 47.2° (Epoch: 05 July)

Event Time Altitude Azimuth Distance (km) Brightness Sun altitude
Rises 21:49:30 0° 223° (SW) 4,788 10.1 -13.4°
Reaches altitude 10° 21:52:36 10° 220° (SW) 3,829 9.5 -13.8°
Maximum altitude 22:02:13 63° 143° (SE) 1,818 7.6 -14.9°
Drops below altitude 10° 22:12:09 10° 65° (ENE) 3,944 9.5 -16.1°
Sets 22:15:22 0° 63° (ENE) 4,939 10.1 -16.5°
